Probability
11 11 10 9 10 11 12 10 8 6 5 4 4 3 3 5 6 8 11 12 12 9 7 6 4 4 5 7 8 8 7 7 8 8 6 5 4 4 4 6 6 6 6
11 10 9 8 9 10 11 10 8 7 5 4 3 3 3 5 7 9 11 12 11 8 6 6 5 4 4 7 9 9 7 5 6 7 7 6 6 5 4 5 5 5 6
9 8 7 7 8 9 11 10 9 9 7 5 4 4 5 6 8 8 9 9 8 6 5 6 6 6 5 7 10 10 9 7 7 7 7 8 9 7 5 3 3 5 6
7 7 7 6 7 9 11 10 9 10 9 6 5 4 5 6 7 6 5 5 5 5 5 5 6 8 7 7 9 10 11 12 12 10 9 9 10 9 6 4 3 4 5
6 6 6 6 6 8 11 11 11 11 9 6 4 3 3 4 5 4 3 2 2 2 3 3 5 7 7 8 9 10 11 14 15 13 12 11 12 10 8 5 3 3 3
7 6 7 8 8 8 11 12 12 10 8 5 4 3 3 3 4 4 3 2 0 0 1 2 4 6 7 8 10 10 10 12 14 15 14 14 14 12 9 6 4 3 3
9 8 8 10 10 9 10 12 13 12 8 5 4 4 4 3 4 4 4 2 1 1 1 1 3 6 8 8 9 9 8 10 12 13 14 15 16 13 9 6 6 7 8
10 9 10 10 10 10 11 14 15 14 11 7 5 5 5 4 3 3 3 1 1 1 2 2 4 6 8 9 9 7 7 9 10 11 12 13 14 13 11 8 7 10 12
11 10 10 11 10 9 10 13 14 13 11 8 7 7 6 5 3 2 1 1 1 1 2 3 5 6 8 9 9 6 6 8 8 8 9 11 11 12 12 10 8 11 13
11 9 8 9 8 7 7 9 10 11 10 10 10 10 8 6 4 2 1 2 2 1 1 2 4 5 8 9 8 5 4 6 7 7 8 9 10 10 10 9 9 11 13
12 8 4 4 5 5 5 6 8 9 9 10 11 12 10 8 5 2 2 3 2 1 1 1 2 3 6 8 6 3 1 2 4 5 7 8 9 9 8 8 9 11 12
13 8 3 3 4 5 5 7 8 8 7 9 12 13 12 9 6 4 4 4 2 1 1 1 1 2 4 5 4 1 0 0 1 3 4 5 7 8 9 9 10 11 11
13 10 7 7 8 8 8 9 9 8 7 8 11 14 13 9 7 5 5 4 3 1 0 0 0 1 3 3 2 1 0 0 0 1 1 2 4 6 8 9 10 10 10
12 11 11 12 12 10 9 9 9 9 8 8 9 12 12 9 7 7 6 5 4 1 0 0 0 1 2 2 1 0 0 0 0 0 0 1 2 4 5 6 7 7 8
11 11 11 12 11 9 9 9 9 9 8 7 7 9 10 8 8 8 6 6 4 1 0 0 0 1 2 2 1 0 0 0 0 0 0 0 1 2 3 4 4 4 5
10 9 9 7 6 5 6 7 8 8 7 7 7 7 7 7 7 7 5 4 3 1 0 0 0 0 1 1 0 0 0 0 0 0 0 0 0 1 2 2 3 3 3
9 7 5 4 2 1 2 4 6 6 6 6 6 5 5 4 4 4 4 3 3 1 0 0 0 0 0 0 1 1 1 0 0 0 0 0 0 0 1 1 1 2 2
7 5 3 2 1 0 1 2 3 3 3 3 3 3 2 1 1 2 3 3 3 2 0 0 0 0 0 0 1 1 1 0 0 0 0 0 0 0 0 0 0 1 1
6 4 2 2 1 0 0 1 1 1 1 1 1 1 0 0 0 1 3 3 3 2 0 0 0 0 0 0 0 1 0 0 0 0 0 0 0 0 0 0 0 0 0
3 2 1 1 1 0 0 0 0 0 0 0 0 0 0 0 0 1 2 3 3 2 1 0 0 1 1 1 1 1 1 1 1 0 0 0 0 0 0 0 0 0 0
2 1 1 0 0 0 0 0 0 0 0 0 0 0 0 0 0 0 1 2 3 2 1 1 2 2 2 2 2 2 1 1 1 1 1 1 2 1 1 1 0 0 0
2 2 1 1 1 1 0 0 0 0 0 0 0 0 0 0 0 0 0 1 1 2 2 2 3 3 3 3 2 1 0 1 1 2 2 2 2 3 3 2 1 0 0
3 3 3 3 3 2 1 0 0 0 0 0 0 0 0 0 0 0 0 0 0 1 1 2 3 3 4 4 3 1 1 1 2 1 1 1 2 3 3 2 1 0 0
4 4 4 3 3 2 1 0 0 0 0 0 0 0 0 0 0 0 0 0 0 0 0 1 2 2 3 4 3 2 2 2 2 1 0 0 0 1 1 1 0 0 0
4 4 3 2 1 1 0 0 0 0 0 0 0 0 0 0 0 0 0 1 2 1 0 0 1 1 1 1 2 3 3 3 2 0 0 0 0 0 0 0 0 0 0
2 2 1 0 0 0 0 0 0 0 0 0 0 0 0 0 0 0 1 2 4 2 1 0 0 0 0 0 1 2 3 3 2 1 0 0 0 0 0 0 0 0 0
Wind_Speed
3 3 2 1 2 2 2 2 2 2 2 3 3 3 2 2 2 2 2 5 4 4 4 5 5 4 4 3 4 5 5 6 6 6 6 6 6 6 6 7 8 8 7
3 3 3 2 2 2 1 2 2 2 2 2 3 2 3 2 2 3 2 4 6 5 5 5 5 5 5 5 5 5 5 5 6 6 7 7 6 6 6 7 7 8 8
3 3 3 3 2 2 2 2 2 2 2 2 2 2 2 3 2 2 3 3 4 6 6 5 4 5 6 6 6 6 6 6 6 6 6 7 6 6 6 6 7 8 8
4 3 3 2 2 2 2 2 2 2 1 2 2 2 2 2 2 3 3 3 3 3 5 6 5 5 6 6 6 6 6 6 6 6 6 6 7 7 7 7 7 8 8
4 4 3 2 3 2 2 2 2 2 2 2 2 2 2 2 2 2 3 3 2 3 3 5 7 5 5 6 6 6 7 7 7 7 7 6 7 7 7 7 7 7 7
3 3 3 3 3 3 2 2 2 2 2 2 3 1 2 2 2 1 3 2 2 4 4 4 5 6 6 5 5 6 6 6 7 7 7 6 6 7 8 7 7 6 6
3 3 3 4 4 3 3 3 3 3 2 2 2 2 2 3 2 2 2 2 3 3 4 4 4 3 4 7 6 5 5 6 6 6 7 6 6 6 6 6 6 6 6
3 3 3 3 3 3 3 3 3 3 2 2 2 2 3 4 3 3 2 3 3 2 3 4 3 3 4 2 3 5 5 5 5 5 6 5 5 6 6 6 6 6 6
3 2 3 3 3 4 3 4 4 4 3 3 2 3 3 2 2 3 3 3 3 2 3 2 3 3 4 3 2 4 3 4 5 6 6 5 5 6 7 7 7 6 6
3 3 3 3 3 3 3 4 4 4 4 3 2 3 3 3 3 2 4 3 3 3 3 3 3 3 3 3 2 0 1 3 4 5 6 6 5 6 7 7 8 8 8
4 4 4 3 4 3 3 3 3 4 3 3 3 3 3 3 5 4 3 3 4 3 3 3 3 3 3 3 3 1 0 3 4 5 6 7 7 7 7 8 8 8 8
3 4 4 3 4 3 3 3 3 4 3 4 4 4 4 3 4 4 4 4 4 2 2 2 3 3 3 3 3 1 1 3 4 5 6 7 7 7 7 8 8 8 8
3 3 3 3 3 3 3 3 3 4 4 4 5 4 4 4 3 4 5 4 4 3 3 3 3 3 3 3 2 2 4 3 3 4 5 6 6 7 7 7 8 8 9
2 2 3 3 3 3 3 3 3 3 3 4 4 4 4 4 4 4 4 4 5 4 3 3 2 2 3 3 1 4 4 4 4 4 4 5 5 6 7 7 7 8 8
3 3 3 3 4 3 3 3 2 3 2 3 3 4 4 3 3 3 4 4 5 5 4 2 2 2 3 3 2 4 5 3 4 6 6 6 6 6 7 7 7 7 7
3 3 3 3 3 3 4 4 3 3 2 2 2 2 3 3 3 3 3 3 4 5 5 2 3 2 3 4 2 5 6 5 7 7 6 6 7 7 8 8 8 8 8
3 4 4 4 4 4 3 3 3 3 3 3 3 3 4 3 3 3 3 3 3 4 5 4 3 2 3 5 4 5 6 6 5 7 7 7 8 8 8 9 9 9 9
4 4 4 3 3 3 3 3 3 3 3 4 3 3 3 3 3 4 3 3 3 4 5 5 4 3 4 4 4 6 5 5 5 5 8 9 9 9 9 9 10 10 10
3 3 3 3 3 3 3 3 3 3 3 3 3 3 4 3 4 3 4 4 4 3 4 5 5 3 4 3 5 5 5 5 6 4 7 10 10 10 10 10 9 9 9
3 3 3 3 3 3 3 3 3 3 3 4 4 4 4 4 4 4 4 4 4 4 4 5 4 3 3 3 4 5 4 4 5 5 4 5 8 11 11 11 10 10 10
3 3 4 4 3 3 2 2 3 3 4 4 4 4 4 3 3 4 4 3 4 5 4 4 4 4 3 3 4 5 5 5 4 4 5 5 5 6 7 10 11 11 10
2 3 4 3 3 2 2 1 3 4 4 5 4 4 4 4 4 5 5 5 5 6 5 5 5 4 4 5 4 6 6 6 5 3 5 5 5 5 5 5 5 9 10
2 2 3 3 2 2 3 3 4 4 5 4 4 4 4 2 4 4 5 7 7 7 7 7 7 6 6 5 6 7 6 7 7 5 5 6 5 5 5 3 5 8 9
2 2 2 3 2 2 4 3 4 5 5 4 4 4 4 4 3 4 5 5 6 5 6 7 6 7 7 6 6 7 8 8 8 5 5 7 5 5 5 4 5 8 9
2 2 2 3 3 3 4 4 5 5 4 4 5 4 4 4 2 3 6 6 6 5 5 6 7 7 7 7 7 6 6 6 6 4 3 6 6 6 6 5 4 7 9
3 3 2 2 3 3 4 5 6 4 4 4 4 4 4 4 3 4 6 6 7 6 5 5 6 8 9 8 9 8 7 7 6 5 3 4 5 5 5 4 4 4 5
Wind_Direction
176 162 155 174 198 191 199 217 223 211 231 224 235 236 245 241 239 230 155 152 175 197 215 223 225 225 222 215 212 213 217 221 223 223 224 230 231 230 227 225 223 218 214
170 174 172 186 203 216 223 224 214 219 230 238 241 241 249 240 226 237 218 173 180 198 216 226 227 228 225 223 219 215 215 219 222 223 227 232 230 223 225 225 226 222 219
170 181 177 193 192 200 206 222 217 227 225 226 229 231 237 241 224 236 243 232 191 184 197 215 227 232 231 233 233 229 225 228 230 229 230 231 229 223 224 228 228 224 219
180 185 185 183 175 206 209 197 217 220 224 239 232 229 230 227 231 236 240 238 244 219 188 196 222 231 234 238 242 238 233 229 228 232 237 234 229 228 227 230 233 225 218
185 191 191 171 195 200 205 216 190 235 224 243 241 226 237 238 232 235 249 247 241 253 242 179 199 217 230 239 241 244 241 231 225 229 236 237 231 227 225 225 229 225 222
190 199 184 178 205 196 199 210 208 225 238 240 251 236 243 244 240 223 240 235 243 250 253 244 215 199 208 226 233 242 245 240 229 227 230 233 233 228 227 225 224 225 226
192 209 200 178 204 197 206 214 218 210 224 236 245 227 213 216 211 223 243 253 241 246 249 247 251 247 202 196 211 233 245 250 241 237 234 230 227 222 222 223 223 225 228
200 201 203 206 198 200 205 215 220 227 224 220 252 250 226 209 205 208 222 231 251 248 243 236 246 251 263 233 162 204 234 249 247 241 236 235 232 223 220 221 221 222 227
184 203 203 227 222 222 206 218 221 226 230 222 236 262 260 248 215 186 222 237 244 259 258 249 236 239 248 250 229 180 210 249 252 249 244 236 236 227 220 221 223 223 225
187 197 207 215 226 230 217 224 215 233 235 232 221 248 282 307 261 218 205 212 226 243 260 268 261 240 244 248 245 43 191 259 264 261 263 251 246 231 222 223 225 226 229
195 200 200 210 217 224 221 236 228 238 239 248 244 241 244 241 254 266 253 238 230 232 247 259 274 269 256 256 255 243 170 265 265 259 262 258 252 242 232 231 228 228 229
200 200 197 204 217 223 216 225 230 229 244 252 253 247 247 244 250 257 260 257 255 248 251 261 262 260 257 260 261 67 237 250 256 257 259 254 248 243 238 235 234 235 233
210 204 205 203 216 223 221 221 222 230 229 236 243 249 255 260 268 266 269 268 269 258 241 242 246 259 264 267 258 217 219 223 244 250 256 256 250 243 242 241 241 241 242
225 215 216 213 220 221 222 217 222 221 219 228 238 250 255 256 261 264 273 276 269 256 237 255 265 263 274 268 290 244 240 193 222 233 242 250 256 246 242 245 245 246 244
226 215 215 222 226 222 222 220 225 228 223 228 230 233 253 259 268 267 264 269 277 282 276 246 260 265 273 272 253 261 266 197 218 229 236 241 243 246 244 245 245 244 243
236 225 220 226 229 222 221 223 222 205 219 236 245 245 256 257 260 261 258 259 264 275 283 283 280 296 299 283 245 267 264 213 218 218 226 233 236 245 248 243 244 246 244
228 226 225 232 232 224 218 221 224 213 218 229 238 230 239 257 256 261 257 256 258 264 269 280 294 306 288 285 285 275 266 257 222 198 215 228 233 241 246 246 246 246 245
228 225 220 226 233 223 213 217 226 222 218 223 230 236 243 236 239 255 262 261 264 272 272 281 285 285 283 282 284 276 273 267 266 194 206 222 231 235 240 244 244 241 240
228 225 221 222 226 218 212 216 228 232 230 231 232 236 243 246 248 252 257 259 260 256 262 267 271 279 277 280 280 270 265 269 269 224 210 216 224 230 235 238 238 236 237
225 225 225 225 223 219 215 214 219 229 230 233 235 236 240 243 250 256 252 256 265 267 255 257 265 267 272 284 282 281 275 265 272 272 262 248 222 221 227 229 229 230 233
222 226 229 224 220 222 217 223 229 230 230 232 236 240 237 242 269 270 275 272 267 268 266 266 267 269 282 296 292 291 288 284 269 266 272 262 239 235 226 222 222 227 232
228 228 226 221 221 220 116 211 254 243 239 237 240 247 238 221 214 221 248 270 276 269 279 281 278 286 290 289 293 289 292 290 285 279 281 275 260 251 245 243 205 206 222
213 224 221 214 215 161 155 200 237 248 240 241 245 247 254 240 227 241 225 228 243 246 257 273 283 289 289 293 292 287 287 290 292 295 283 277 269 266 261 251 188 205 218
224 229 223 210 206 176 166 202 233 235 242 244 246 247 252 259 254 262 262 254 253 245 241 246 265 277 286 294 284 279 280 274 268 259 266 277 277 276 275 262 198 211 222
239 240 225 206 205 186 173 203 237 234 233 237 240 240 245 252 243 258 260 263 262 259 231 234 253 265 278 276 275 275 274 274 280 279 275 280 286 288 278 269 233 211 224
241 246 229 214 209 202 179 202 236 243 240 241 232 225 210 239 237 240 255 261 264 270 275 249 241 245 251 247 234 252 270 275 281 282 279 276 282 287 281 272 271 246 232